Year,Month,Day,Hour,Minute,Value (Times are PST for temperature in C)
2017,10,24,00,00,10.70
2017,10,24,00,01,10.70
2017,10,24,00,02,10.70
2017,10,24,00,03,10.70
2017,10,24,00,04,10.70
2017,10,24,00,05,10.70
2017,10,24,00,06,10.70
2017,10,24,00,07,10.70
2017,10,24,00,08,10.70
2017,10,24,00,09,10.70
2017,10,24,00,10,10.60
2017,10,24,00,11,10.60
2017,10,24,00,12,10.60
2017,10,24,00,13,10.60
2017,10,24,00,14,10.60
2017,10,24,00,15,10.60
2017,10,24,00,16,10.60
2017,10,24,00,17,10.60
2017,10,24,00,18,10.60
2017,10,24,00,19,10.60
2017,10,24,00,20,10.60
2017,10,24,00,21,10.60
2017,10,24,00,22,10.60
2017,10,24,00,23,10.60
2017,10,24,00,24,10.60
2017,10,24,00,25,10.60
2017,10,24,00,26,10.50
2017,10,24,00,27,10.50
2017,10,24,00,28,10.50
2017,10,24,00,29,10.50
2017,10,24,00,30,10.50
2017,10,24,00,31,10.50
2017,10,24,00,32,10.40
2017,10,24,00,33,10.40
2017,10,24,00,34,10.40
2017,10,24,00,35,10.40
2017,10,24,00,36,10.40
2017,10,24,00,37,10.40
2017,10,24,00,38,10.40
2017,10,24,00,39,10.40
2017,10,24,00,40,10.40
2017,10,24,00,41,10.40
2017,10,24,00,42,10.40
2017,10,24,00,43,10.40
2017,10,24,00,44,10.40
2017,10,24,00,45,10.40
2017,10,24,00,46,10.40
2017,10,24,00,47,10.40
2017,10,24,00,48,10.40
2017,10,24,00,49,10.40
2017,10,24,00,50,10.40
2017,10,24,00,51,10.40
2017,10,24,00,52,10.40
2017,10,24,00,53,10.40
2017,10,24,00,54,10.40
2017,10,24,00,55,10.40
2017,10,24,00,56,10.40
2017,10,24,00,57,10.40
2017,10,24,00,58,10.40
2017,10,24,00,59,10.40
2017,10,24,01,00,10.40
2017,10,24,01,01,10.40
2017,10,24,01,02,10.40
2017,10,24,01,03,10.40
2017,10,24,01,04,10.40
2017,10,24,01,05,10.40
2017,10,24,01,06,10.40
2017,10,24,01,07,10.40
2017,10,24,01,08,10.40
2017,10,24,01,09,10.30
2017,10,24,01,10,10.30
2017,10,24,01,11,10.30
2017,10,24,01,12,10.30
2017,10,24,01,13,10.30
2017,10,24,01,14,10.30
2017,10,24,01,15,10.30
2017,10,24,01,16,10.30
2017,10,24,01,17,10.30
2017,10,24,01,18,10.30
2017,10,24,01,19,10.30
2017,10,24,01,20,10.30
2017,10,24,01,21,10.30
2017,10,24,01,22,10.30
2017,10,24,01,23,10.30
2017,10,24,01,24,10.30
2017,10,24,01,25,10.30
2017,10,24,01,26,10.30
2017,10,24,01,27,10.30
2017,10,24,01,28,10.30
2017,10,24,01,29,10.30
2017,10,24,01,30,10.30
2017,10,24,01,31,10.30
2017,10,24,01,32,10.20
2017,10,24,01,33,10.20
2017,10,24,01,34,10.20
2017,10,24,01,35,10.20
2017,10,24,01,36,10.20
2017,10,24,01,37,10.20
2017,10,24,01,38,10.20
2017,10,24,01,39,10.20
2017,10,24,01,40,10.20
2017,10,24,01,41,10.20
2017,10,24,01,42,10.20
2017,10,24,01,43,10.20
2017,10,24,01,44,10.20
2017,10,24,01,45,10.20
2017,10,24,01,46,10.20
2017,10,24,01,47,10.20
2017,10,24,01,48,10.20
2017,10,24,01,49,10.20
2017,10,24,01,50,10.10
2017,10,24,01,51,10.10
2017,10,24,01,52,10.10
2017,10,24,01,53,10.10
2017,10,24,01,54,10.10
2017,10,24,01,55,10.10
2017,10,24,01,56,10.10
2017,10,24,01,57,10.10
2017,10,24,01,58,10.10
2017,10,24,01,59,10.10
2017,10,24,02,00,10.10
2017,10,24,02,01,10.10
2017,10,24,02,02,10.10
2017,10,24,02,03,10.10
2017,10,24,02,04,10.10
2017,10,24,02,05,10.10
2017,10,24,02,06,10.10
2017,10,24,02,07,10.10
2017,10,24,02,08,10.10
2017,10,24,02,09,10.10
2017,10,24,02,10,10.00
2017,10,24,02,11,10.00
2017,10,24,02,12,10.00
2017,10,24,02,13,10.00
2017,10,24,02,14,10.00
2017,10,24,02,15,10.00
2017,10,24,02,16,10.00
2017,10,24,02,17,10.00
2017,10,24,02,18,10.00
2017,10,24,02,19,10.00
2017,10,24,02,20,10.00
2017,10,24,02,21,10.10
2017,10,24,02,22,10.10
2017,10,24,02,23,10.10
2017,10,24,02,24,10.10
2017,10,24,02,25,10.10
2017,10,24,02,26,10.10
2017,10,24,02,27,10.10
2017,10,24,02,28,10.10
2017,10,24,02,29,10.10
2017,10,24,02,30,10.10
2017,10,24,02,31,10.10
2017,10,24,02,32,10.00
2017,10,24,02,33,10.00
2017,10,24,02,34,10.00
2017,10,24,02,35,10.00
2017,10,24,02,36,9.90
2017,10,24,02,37,9.90
2017,10,24,02,38,9.90
2017,10,24,02,39,9.90
2017,10,24,02,40,9.80
2017,10,24,02,41,9.80
2017,10,24,02,42,9.80
2017,10,24,02,43,9.80
2017,10,24,02,44,9.80
2017,10,24,02,45,9.80
2017,10,24,02,46,9.80
2017,10,24,02,47,9.80
2017,10,24,02,48,9.80
2017,10,24,02,49,9.80
2017,10,24,02,50,9.80
2017,10,24,02,51,9.80
2017,10,24,02,52,9.80
2017,10,24,02,53,9.80
2017,10,24,02,54,9.80
2017,10,24,02,55,9.80
2017,10,24,02,56,9.70
2017,10,24,02,57,9.70
2017,10,24,02,58,9.70
2017,10,24,02,59,9.70
2017,10,24,03,00,9.60
2017,10,24,03,01,9.60
2017,10,24,03,02,9.60
2017,10,24,03,03,9.60
2017,10,24,03,04,9.60
2017,10,24,03,05,9.60
2017,10,24,03,06,9.50
2017,10,24,03,07,9.50
2017,10,24,03,08,9.50
2017,10,24,03,09,9.40
2017,10,24,03,10,9.40
2017,10,24,03,11,9.40
2017,10,24,03,12,9.40
2017,10,24,03,13,9.40
2017,10,24,03,14,9.40
2017,10,24,03,15,9.30
2017,10,24,03,16,9.30
2017,10,24,03,17,9.40
2017,10,24,03,18,9.40
2017,10,24,03,19,9.40
2017,10,24,03,20,9.50
2017,10,24,03,21,9.50
2017,10,24,03,22,9.50
2017,10,24,03,23,9.50
2017,10,24,03,24,9.50
2017,10,24,03,25,9.50
2017,10,24,03,26,9.50
2017,10,24,03,27,9.50
2017,10,24,03,28,9.50
2017,10,24,03,29,9.40
2017,10,24,03,30,9.40
2017,10,24,03,31,9.40
2017,10,24,03,32,9.30
2017,10,24,03,33,9.30
2017,10,24,03,34,9.30
2017,10,24,03,35,9.20
2017,10,24,03,36,9.20
2017,10,24,03,37,9.20
2017,10,24,03,38,9.20
2017,10,24,03,39,9.10
2017,10,24,03,40,9.10
2017,10,24,03,41,9.10
2017,10,24,03,42,9.10
2017,10,24,03,43,9.00
2017,10,24,03,44,9.00
2017,10,24,03,45,9.00
2017,10,24,03,46,9.00
2017,10,24,03,47,9.00
2017,10,24,03,48,9.00
2017,10,24,03,49,9.00
2017,10,24,03,50,9.00
2017,10,24,03,51,8.90
2017,10,24,03,52,8.90
2017,10,24,03,53,8.90
2017,10,24,03,54,8.90
2017,10,24,03,55,8.90
2017,10,24,03,56,8.90
2017,10,24,03,57,8.90
2017,10,24,03,58,8.80
2017,10,24,03,59,8.90
2017,10,24,04,00,8.90
2017,10,24,04,01,8.90
2017,10,24,04,02,8.90
2017,10,24,04,03,8.90
2017,10,24,04,04,8.90
2017,10,24,04,05,9.00
2017,10,24,04,06,9.00
2017,10,24,04,07,9.00
2017,10,24,04,08,9.00
2017,10,24,04,09,9.00
2017,10,24,04,10,8.90
2017,10,24,04,11,8.90
2017,10,24,04,12,8.90
2017,10,24,04,13,8.80
2017,10,24,04,14,8.80
2017,10,24,04,15,8.70
2017,10,24,04,16,8.70
2017,10,24,04,17,8.70
2017,10,24,04,18,8.60
2017,10,24,04,19,8.60
2017,10,24,04,20,8.50
2017,10,24,04,21,8.50
2017,10,24,04,22,8.40
2017,10,24,04,23,8.40
2017,10,24,04,24,8.40
2017,10,24,04,25,8.40
2017,10,24,04,26,8.30
2017,10,24,04,27,8.30
2017,10,24,04,28,8.30
2017,10,24,04,29,8.20
2017,10,24,04,30,8.20
2017,10,24,04,31,8.20
2017,10,24,04,32,8.10
2017,10,24,04,33,8.10
2017,10,24,04,34,8.10
2017,10,24,04,35,8.10
2017,10,24,04,36,8.00
2017,10,24,04,37,7.90
2017,10,24,04,38,7.90
2017,10,24,04,39,7.90
2017,10,24,04,40,7.90
2017,10,24,04,41,7.90
2017,10,24,04,42,7.80
2017,10,24,04,43,7.80
2017,10,24,04,44,7.80
2017,10,24,04,45,7.80
2017,10,24,04,46,7.80
2017,10,24,04,47,7.80
2017,10,24,04,48,7.80
2017,10,24,04,49,7.80
2017,10,24,04,50,7.80
2017,10,24,04,51,7.90
2017,10,24,04,52,7.90
2017,10,24,04,53,7.90
2017,10,24,04,54,7.90
2017,10,24,04,55,7.90
2017,10,24,04,56,7.90
2017,10,24,04,57,7.90
2017,10,24,04,58,7.90
2017,10,24,04,59,7.90
2017,10,24,05,00,7.90
2017,10,24,05,01,7.90
2017,10,24,05,02,8.00
2017,10,24,05,03,8.00
2017,10,24,05,04,8.00
2017,10,24,05,05,8.10
2017,10,24,05,06,8.10
2017,10,24,05,07,8.10
2017,10,24,05,08,8.00
2017,10,24,05,09,8.00
2017,10,24,05,10,8.00
2017,10,24,05,11,8.00
2017,10,24,05,12,7.90
2017,10,24,05,13,7.90
2017,10,24,05,14,7.90
2017,10,24,05,15,7.90
2017,10,24,05,16,7.90
2017,10,24,05,17,7.90
2017,10,24,05,18,7.90
2017,10,24,05,19,8.00
2017,10,24,05,20,8.00
2017,10,24,05,21,8.10
2017,10,24,05,22,8.10
2017,10,24,05,23,8.10
2017,10,24,05,24,8.20
2017,10,24,05,25,8.20
2017,10,24,05,26,8.20
2017,10,24,05,27,8.30
2017,10,24,05,28,8.40
2017,10,24,05,29,8.40
2017,10,24,05,30,8.50
2017,10,24,05,31,8.50
2017,10,24,05,32,8.50
2017,10,24,05,33,8.50
2017,10,24,05,34,8.60
2017,10,24,05,35,8.60
2017,10,24,05,36,8.70
2017,10,24,05,37,8.60
2017,10,24,05,38,8.60
2017,10,24,05,39,8.70
2017,10,24,05,40,8.70
2017,10,24,05,41,8.70
2017,10,24,05,42,8.70
2017,10,24,05,43,8.70
2017,10,24,05,44,8.70
2017,10,24,05,45,8.70
2017,10,24,05,46,8.70
2017,10,24,05,47,8.70
2017,10,24,05,48,8.70
2017,10,24,05,49,8.70
2017,10,24,05,50,8.80
2017,10,24,05,51,8.80
2017,10,24,05,52,8.80
2017,10,24,05,53,8.80
2017,10,24,05,54,8.80
2017,10,24,05,55,8.90
2017,10,24,05,56,8.90
2017,10,24,05,57,8.80
2017,10,24,05,58,8.80
2017,10,24,05,59,8.80
2017,10,24,06,00,8.80
2017,10,24,06,01,8.80
2017,10,24,06,02,8.80
2017,10,24,06,03,8.80
2017,10,24,06,04,8.80
2017,10,24,06,05,8.80
2017,10,24,06,06,8.70
2017,10,24,06,07,8.70
2017,10,24,06,08,8.70
2017,10,24,06,09,8.70
2017,10,24,06,10,8.70
2017,10,24,06,11,8.60
2017,10,24,06,12,8.60
2017,10,24,06,13,8.60
2017,10,24,06,14,8.70
2017,10,24,06,15,8.70
2017,10,24,06,16,8.70
2017,10,24,06,17,8.70
2017,10,24,06,18,8.60
2017,10,24,06,19,8.60
2017,10,24,06,20,8.60
2017,10,24,06,21,8.60
2017,10,24,06,22,8.60
2017,10,24,06,23,8.60
2017,10,24,06,24,8.60
2017,10,24,06,25,8.60
2017,10,24,06,26,8.60
2017,10,24,06,27,8.60
2017,10,24,06,28,8.60
2017,10,24,06,29,8.60
2017,10,24,06,30,8.70
2017,10,24,06,31,8.70
2017,10,24,06,32,8.70
2017,10,24,06,33,8.70
2017,10,24,06,34,8.70
2017,10,24,06,35,8.70
2017,10,24,06,36,8.70
2017,10,24,06,37,8.70
2017,10,24,06,38,8.70
2017,10,24,06,39,8.70
2017,10,24,06,40,8.70
2017,10,24,06,41,8.70
2017,10,24,06,42,8.70
2017,10,24,06,43,8.70
2017,10,24,06,44,8.70
2017,10,24,06,45,8.70
2017,10,24,06,46,8.70
2017,10,24,06,47,8.70
2017,10,24,06,48,8.70
2017,10,24,06,49,8.70
2017,10,24,06,50,8.70
2017,10,24,06,51,8.70
2017,10,24,06,52,8.70
2017,10,24,06,53,8.70
2017,10,24,06,54,8.70
2017,10,24,06,55,8.60
2017,10,24,06,56,8.60
2017,10,24,06,57,8.60
2017,10,24,06,58,8.50
2017,10,24,06,59,8.50
2017,10,24,07,00,8.50
2017,10,24,07,01,8.50
2017,10,24,07,02,8.50
2017,10,24,07,03,8.40
2017,10,24,07,04,8.40
2017,10,24,07,05,8.40
2017,10,24,07,06,8.30
2017,10,24,07,07,8.30
2017,10,24,07,08,8.30
2017,10,24,07,09,8.30
2017,10,24,07,10,8.30
2017,10,24,07,11,8.20
2017,10,24,07,12,8.20
2017,10,24,07,13,8.20
2017,10,24,07,14,8.20
2017,10,24,07,15,8.20
2017,10,24,07,16,8.20
2017,10,24,07,17,8.20
2017,10,24,07,18,8.20
2017,10,24,07,19,8.20
2017,10,24,07,20,8.20
2017,10,24,07,21,8.20
2017,10,24,07,22,8.20
2017,10,24,07,23,8.20
2017,10,24,07,24,8.10
2017,10,24,07,25,8.10
2017,10,24,07,26,8.10
2017,10,24,07,27,8.10
2017,10,24,07,28,8.00
2017,10,24,07,29,8.00
2017,10,24,07,30,8.00
2017,10,24,07,31,7.90
2017,10,24,07,32,7.90
2017,10,24,07,33,7.90
2017,10,24,07,34,7.90
2017,10,24,07,35,7.90
2017,10,24,07,36,7.80
2017,10,24,07,37,7.80
2017,10,24,07,38,7.80
2017,10,24,07,39,7.80
2017,10,24,07,40,7.80
2017,10,24,07,41,7.80
2017,10,24,07,42,7.70
2017,10,24,07,43,7.70
2017,10,24,07,44,7.70
2017,10,24,07,45,7.70
2017,10,24,07,46,7.70
2017,10,24,07,47,7.70
2017,10,24,07,48,7.70
2017,10,24,07,49,7.70
2017,10,24,07,50,7.70
2017,10,24,07,51,7.70
2017,10,24,07,52,7.70
2017,10,24,07,53,7.70
2017,10,24,07,54,7.80
2017,10,24,07,55,7.80
2017,10,24,07,56,7.80
2017,10,24,07,57,7.80
2017,10,24,07,58,7.90
2017,10,24,07,59,7.90
2017,10,24,08,00,7.90
2017,10,24,08,01,7.90
2017,10,24,08,02,7.90
2017,10,24,08,03,7.90
2017,10,24,08,04,7.90
2017,10,24,08,05,8.00
2017,10,24,08,06,8.00
2017,10,24,08,07,8.00
2017,10,24,08,08,8.00
2017,10,24,08,09,8.00
2017,10,24,08,10,8.00
2017,10,24,08,11,8.00
2017,10,24,08,12,8.00
2017,10,24,08,13,8.00
2017,10,24,08,14,7.90
2017,10,24,08,15,7.90
2017,10,24,08,16,7.90
2017,10,24,08,17,7.90
2017,10,24,08,18,7.90
2017,10,24,08,19,7.90
2017,10,24,08,20,7.90
2017,10,24,08,21,7.90
2017,10,24,08,22,8.00
2017,10,24,08,23,8.00
2017,10,24,08,24,8.00
2017,10,24,08,25,8.00
2017,10,24,08,26,8.00
2017,10,24,08,27,8.00
2017,10,24,08,28,8.10
2017,10,24,08,29,8.10
2017,10,24,08,30,8.10
2017,10,24,08,31,8.10
2017,10,24,08,32,8.10
2017,10,24,08,33,8.10
2017,10,24,08,34,8.10
2017,10,24,08,35,8.10
2017,10,24,08,36,8.10
2017,10,24,08,37,8.10
2017,10,24,08,38,8.10
2017,10,24,08,39,8.10
2017,10,24,08,40,8.20
2017,10,24,08,41,8.20
2017,10,24,08,42,8.30
2017,10,24,08,43,8.40
2017,10,24,08,44,8.40
2017,10,24,08,45,8.50
2017,10,24,08,46,8.50
2017,10,24,08,47,8.60
2017,10,24,08,48,8.60
2017,10,24,08,49,8.60
2017,10,24,08,50,8.70
2017,10,24,08,51,8.80
2017,10,24,08,52,8.80
2017,10,24,08,53,8.90
2017,10,24,08,54,8.90
2017,10,24,08,55,8.90
2017,10,24,08,56,9.00
2017,10,24,08,57,9.10
2017,10,24,08,58,9.10
2017,10,24,08,59,9.20
2017,10,24,09,00,9.20
2017,10,24,09,01,9.20
2017,10,24,09,02,9.30
2017,10,24,09,03,9.30
2017,10,24,09,04,9.40
2017,10,24,09,05,9.50
2017,10,24,09,06,9.50
2017,10,24,09,07,9.60
2017,10,24,09,08,9.60
2017,10,24,09,09,9.70
2017,10,24,09,10,9.70
2017,10,24,09,11,9.70
2017,10,24,09,12,9.80
2017,10,24,09,13,9.80
2017,10,24,09,14,9.90
2017,10,24,09,15,9.90
2017,10,24,09,16,10.00
2017,10,24,09,17,10.00
2017,10,24,09,18,10.10
2017,10,24,09,19,10.10
2017,10,24,09,20,10.10
2017,10,24,09,21,10.10
2017,10,24,09,22,10.20
2017,10,24,09,23,10.20
2017,10,24,09,24,10.20
2017,10,24,09,25,10.30
2017,10,24,09,26,10.30
2017,10,24,09,27,10.30
2017,10,24,09,28,10.30
2017,10,24,09,29,10.30
2017,10,24,09,30,10.40
2017,10,24,09,31,10.40
2017,10,24,09,32,10.40
2017,10,24,09,33,10.50
2017,10,24,09,34,10.50
2017,10,24,09,35,10.60
2017,10,24,09,36,10.60
2017,10,24,09,37,10.60
2017,10,24,09,38,10.60
2017,10,24,09,39,10.60
2017,10,24,09,40,10.70
2017,10,24,09,41,10.70
2017,10,24,09,42,10.70
2017,10,24,09,43,10.70
2017,10,24,09,44,10.70
2017,10,24,09,45,10.80
2017,10,24,09,46,10.80
2017,10,24,09,47,10.80
2017,10,24,09,48,10.80
2017,10,24,09,49,10.80
2017,10,24,09,50,10.80
2017,10,24,09,51,10.80
2017,10,24,09,52,10.90
2017,10,24,09,53,10.90
2017,10,24,09,54,10.90
2017,10,24,09,55,10.90
2017,10,24,09,56,11.00
2017,10,24,09,57,11.10
2017,10,24,09,58,11.10
2017,10,24,09,59,11.10
2017,10,24,10,00,11.20
2017,10,24,10,01,11.20
2017,10,24,10,02,11.20
2017,10,24,10,03,11.30
2017,10,24,10,04,11.40
2017,10,24,10,05,11.40
2017,10,24,10,06,11.40
2017,10,24,10,07,11.50
2017,10,24,10,08,11.50
2017,10,24,10,09,11.60
2017,10,24,10,10,11.70
2017,10,24,10,11,11.70
2017,10,24,10,12,11.80
2017,10,24,10,13,11.90
2017,10,24,10,14,11.90
2017,10,24,10,15,12.00
2017,10,24,10,16,12.10
2017,10,24,10,17,12.20
2017,10,24,10,18,12.30
2017,10,24,10,19,12.30
2017,10,24,10,20,12.40
2017,10,24,10,21,12.50
2017,10,24,10,22,12.50
2017,10,24,10,23,12.70
2017,10,24,10,24,12.80
2017,10,24,10,25,12.90
2017,10,24,10,26,13.00
2017,10,24,10,27,13.10
2017,10,24,10,28,13.20
2017,10,24,10,29,13.30
2017,10,24,10,30,13.30
2017,10,24,10,31,13.40
2017,10,24,10,32,13.50
2017,10,24,10,33,13.60
2017,10,24,10,34,13.70
2017,10,24,10,35,13.70
2017,10,24,10,36,13.80
2017,10,24,10,37,13.80
2017,10,24,10,38,13.80
2017,10,24,10,39,13.90
2017,10,24,10,40,13.90
2017,10,24,10,41,14.00
2017,10,24,10,42,14.00
2017,10,24,10,43,14.00
2017,10,24,10,44,14.10
2017,10,24,10,45,14.10
2017,10,24,10,46,14.20
2017,10,24,10,47,14.20
2017,10,24,10,48,14.20
2017,10,24,10,49,14.30
2017,10,24,10,50,14.30
2017,10,24,10,51,14.30
2017,10,24,10,52,14.30
2017,10,24,10,53,14.20
2017,10,24,10,54,14.20
2017,10,24,10,55,14.20
2017,10,24,10,56,14.20
2017,10,24,10,57,14.20
2017,10,24,10,58,14.20
2017,10,24,10,59,14.20
2017,10,24,11,00,14.10
2017,10,24,11,01,14.10
2017,10,24,11,02,14.10
2017,10,24,11,03,14.10
2017,10,24,11,04,14.10
2017,10,24,11,05,14.10
2017,10,24,11,06,14.10
2017,10,24,11,07,14.10
2017,10,24,11,08,14.10
2017,10,24,11,09,14.10
2017,10,24,11,10,14.10
2017,10,24,11,11,14.10
2017,10,24,11,12,14.10
2017,10,24,11,13,14.10
2017,10,24,11,14,14.00
2017,10,24,11,15,14.00
2017,10,24,11,16,14.00
2017,10,24,11,17,14.00
2017,10,24,11,18,13.90
2017,10,24,11,19,13.90
2017,10,24,11,20,13.90
2017,10,24,11,21,13.90
2017,10,24,11,22,13.90
2017,10,24,11,23,13.90
2017,10,24,11,24,13.90
2017,10,24,11,25,13.90
2017,10,24,11,26,13.90
2017,10,24,11,27,13.90
2017,10,24,11,28,13.90
2017,10,24,11,29,14.00
2017,10,24,11,30,14.00
2017,10,24,11,31,14.10
2017,10,24,11,32,14.10
2017,10,24,11,33,14.20
2017,10,24,11,34,14.20
2017,10,24,11,35,14.20
2017,10,24,11,36,14.20
2017,10,24,11,37,14.30
2017,10,24,11,38,14.30
2017,10,24,11,39,14.30
2017,10,24,11,40,14.30
2017,10,24,11,41,14.40
2017,10,24,11,42,14.40
2017,10,24,11,43,14.40
2017,10,24,11,44,14.50
2017,10,24,11,45,14.60
2017,10,24,11,46,14.70
2017,10,24,11,47,14.70
2017,10,24,11,48,14.70
2017,10,24,11,49,14.70
2017,10,24,11,50,14.80
2017,10,24,11,51,14.80
2017,10,24,11,52,14.90
2017,10,24,11,53,14.90
2017,10,24,11,54,14.80
2017,10,24,11,55,14.70
2017,10,24,11,56,14.70
2017,10,24,11,57,14.60
2017,10,24,11,58,14.50
2017,10,24,11,59,14.50
2017,10,24,12,00,14.40
2017,10,24,12,01,14.40
2017,10,24,12,02,14.40
2017,10,24,12,03,14.40
2017,10,24,12,04,14.40
2017,10,24,12,05,14.40
2017,10,24,12,06,14.40
2017,10,24,12,07,14.50
2017,10,24,12,08,14.50
2017,10,24,12,09,14.60
2017,10,24,12,10,14.60
2017,10,24,12,11,14.70
2017,10,24,12,12,14.70
2017,10,24,12,13,14.70
2017,10,24,12,14,14.70
2017,10,24,12,15,14.80
2017,10,24,12,16,14.80
2017,10,24,12,17,14.80
2017,10,24,12,18,14.80
2017,10,24,12,19,14.90
2017,10,24,12,20,15.00
2017,10,24,12,21,15.00
2017,10,24,12,22,15.00
2017,10,24,12,23,15.00
2017,10,24,12,24,15.00
2017,10,24,12,25,15.00
2017,10,24,12,26,15.00
2017,10,24,12,27,15.00
2017,10,24,12,28,15.00
2017,10,24,12,29,15.00
2017,10,24,12,30,15.00
2017,10,24,12,31,15.10
2017,10,24,12,32,15.20
2017,10,24,12,33,15.30
2017,10,24,12,34,15.40
2017,10,24,12,35,15.40
2017,10,24,12,36,15.50
2017,10,24,12,37,15.50
2017,10,24,12,38,15.40
2017,10,24,12,39,15.40
2017,10,24,12,40,15.40
2017,10,24,12,41,15.40
2017,10,24,12,42,15.40
2017,10,24,12,43,15.40
2017,10,24,12,44,15.40
2017,10,24,12,45,15.50
2017,10,24,12,46,15.60
2017,10,24,12,47,15.60
2017,10,24,12,48,15.70
2017,10,24,12,49,15.70
2017,10,24,12,50,15.70
2017,10,24,12,51,15.70
2017,10,24,12,52,15.80
2017,10,24,12,53,15.80
2017,10,24,12,54,15.70
2017,10,24,12,55,15.70
2017,10,24,12,56,15.80
2017,10,24,12,57,15.80
2017,10,24,12,58,15.80
2017,10,24,12,59,15.80
2017,10,24,13,00,15.80
2017,10,24,13,01,15.80
2017,10,24,13,02,15.80
2017,10,24,13,03,15.90
2017,10,24,13,04,15.90
2017,10,24,13,05,16.00
2017,10,24,13,06,16.10
2017,10,24,13,07,16.10
2017,10,24,13,08,16.10
2017,10,24,13,09,16.10
2017,10,24,13,10,16.10
2017,10,24,13,11,16.00
2017,10,24,13,12,16.00
2017,10,24,13,13,16.00
2017,10,24,13,14,16.00
2017,10,24,13,15,16.00
2017,10,24,13,16,16.00
2017,10,24,13,17,16.00
2017,10,24,13,18,16.10
2017,10,24,13,19,16.10
2017,10,24,13,20,16.10
2017,10,24,13,21,16.10
2017,10,24,13,22,16.10
2017,10,24,13,23,16.20
2017,10,24,13,24,16.10
2017,10,24,13,25,16.10
2017,10,24,13,26,16.10
2017,10,24,13,27,16.10
2017,10,24,13,28,16.10
2017,10,24,13,29,16.10
2017,10,24,13,30,16.10
2017,10,24,13,31,16.10
2017,10,24,13,32,16.10
2017,10,24,13,33,16.10
2017,10,24,13,34,16.20
2017,10,24,13,35,16.20
2017,10,24,13,36,16.30
2017,10,24,13,37,16.40
2017,10,24,13,38,16.40
2017,10,24,13,39,16.40
2017,10,24,13,40,16.40
2017,10,24,13,41,16.40
2017,10,24,13,42,16.40
2017,10,24,13,43,16.50
2017,10,24,13,44,16.50
2017,10,24,13,45,16.60
2017,10,24,13,46,16.60
2017,10,24,13,47,16.60
2017,10,24,13,48,16.60
2017,10,24,13,49,16.60
2017,10,24,13,50,16.60
2017,10,24,13,51,16.60
2017,10,24,13,52,16.60
2017,10,24,13,53,16.60
2017,10,24,13,54,16.60
2017,10,24,13,55,16.60
2017,10,24,13,56,16.60
2017,10,24,13,57,16.60
2017,10,24,13,58,16.60
2017,10,24,13,59,16.60
2017,10,24,14,00,16.60
2017,10,24,14,01,16.60
2017,10,24,14,02,16.60
2017,10,24,14,03,16.60
2017,10,24,14,04,16.60
2017,10,24,14,05,16.60
2017,10,24,14,06,16.60
2017,10,24,14,07,16.60
2017,10,24,14,08,16.60
2017,10,24,14,09,16.70
2017,10,24,14,10,16.70
2017,10,24,14,11,16.70
2017,10,24,14,12,16.70
2017,10,24,14,13,16.70
2017,10,24,14,14,16.70
2017,10,24,14,15,16.70
2017,10,24,14,16,16.70
2017,10,24,14,17,16.70
2017,10,24,14,18,16.70
2017,10,24,14,19,16.70
2017,10,24,14,20,16.70
2017,10,24,14,21,16.80
2017,10,24,14,22,16.80
2017,10,24,14,23,16.80
2017,10,24,14,24,16.80
2017,10,24,14,25,16.90
2017,10,24,14,26,16.90
2017,10,24,14,27,16.90
2017,10,24,14,28,16.80
2017,10,24,14,29,16.80
2017,10,24,14,30,16.80
2017,10,24,14,31,16.80
2017,10,24,14,32,16.80
2017,10,24,14,33,16.90
2017,10,24,14,34,16.90
2017,10,24,14,35,16.90
2017,10,24,14,36,16.90
2017,10,24,14,37,16.90
2017,10,24,14,38,16.80
2017,10,24,14,39,16.80
2017,10,24,14,40,16.70
2017,10,24,14,41,16.70
2017,10,24,14,42,16.70
2017,10,24,14,43,16.70
2017,10,24,14,44,16.70
2017,10,24,14,45,16.70
2017,10,24,14,46,16.80
2017,10,24,14,47,16.80
2017,10,24,14,48,16.80
2017,10,24,14,49,16.80
2017,10,24,14,50,16.80
2017,10,24,14,51,16.80
2017,10,24,14,52,16.80
2017,10,24,14,53,16.80
2017,10,24,14,54,16.80
2017,10,24,14,55,16.90
2017,10,24,14,56,16.90
2017,10,24,14,57,17.00
2017,10,24,14,58,17.00
2017,10,24,14,59,17.10
2017,10,24,15,00,17.00
2017,10,24,15,01,17.00
2017,10,24,15,02,16.90
2017,10,24,15,03,16.80
2017,10,24,15,04,16.70
2017,10,24,15,05,16.70
2017,10,24,15,06,16.70
2017,10,24,15,07,16.70
2017,10,24,15,08,16.70
2017,10,24,15,09,16.70
2017,10,24,15,10,16.70
2017,10,24,15,11,16.60
2017,10,24,15,12,16.60
2017,10,24,15,13,16.60
2017,10,24,15,14,16.70
2017,10,24,15,15,16.70
2017,10,24,15,16,16.70
2017,10,24,15,17,16.80
2017,10,24,15,18,16.80
2017,10,24,15,19,16.80
2017,10,24,15,20,16.70
2017,10,24,15,21,16.70
2017,10,24,15,22,16.60
2017,10,24,15,23,16.60
2017,10,24,15,24,16.60
2017,10,24,15,25,16.60
2017,10,24,15,26,16.50
2017,10,24,15,27,16.60
2017,10,24,15,28,16.60
2017,10,24,15,29,16.60
2017,10,24,15,30,16.60
2017,10,24,15,31,16.70
2017,10,24,15,32,16.70
2017,10,24,15,33,16.70
2017,10,24,15,34,16.70
2017,10,24,15,35,16.70
2017,10,24,15,36,16.60
2017,10,24,15,37,16.60
2017,10,24,15,38,16.50
2017,10,24,15,39,16.50
2017,10,24,15,40,16.60
2017,10,24,15,41,16.60
2017,10,24,15,42,16.60
2017,10,24,15,43,16.50
2017,10,24,15,44,16.50
2017,10,24,15,45,16.50
2017,10,24,15,46,16.50
2017,10,24,15,47,16.60
2017,10,24,15,48,16.60
2017,10,24,15,49,16.70
2017,10,24,15,50,16.70
2017,10,24,15,51,16.80
2017,10,24,15,52,16.90
2017,10,24,15,53,16.90
2017,10,24,15,54,16.80
2017,10,24,15,55,16.80
2017,10,24,15,56,16.80
2017,10,24,15,57,16.80
2017,10,24,15,58,16.70
2017,10,24,15,59,16.70
2017,10,24,16,00,16.80
2017,10,24,16,01,16.80
2017,10,24,16,02,16.80
2017,10,24,16,03,16.90
2017,10,24,16,04,16.90
2017,10,24,16,05,16.90
2017,10,24,16,06,16.90
2017,10,24,16,07,16.80
2017,10,24,16,08,16.80
2017,10,24,16,09,16.80
2017,10,24,16,10,16.70
2017,10,24,16,11,16.80
2017,10,24,16,12,16.80
2017,10,24,16,13,16.80
2017,10,24,16,14,16.70
2017,10,24,16,15,16.70
2017,10,24,16,16,16.60
2017,10,24,16,17,16.60
2017,10,24,16,18,16.50
2017,10,24,16,19,16.40
2017,10,24,16,20,16.40
2017,10,24,16,21,16.30
2017,10,24,16,22,16.30
2017,10,24,16,23,16.30
2017,10,24,16,24,16.30
2017,10,24,16,25,16.30
2017,10,24,16,26,16.30
2017,10,24,16,27,16.30
2017,10,24,16,28,16.40
2017,10,24,16,29,16.40
2017,10,24,16,30,16.40
2017,10,24,16,31,16.40
2017,10,24,16,32,16.40
2017,10,24,16,33,16.30
2017,10,24,16,34,16.30
2017,10,24,16,35,16.30
2017,10,24,16,36,16.30
2017,10,24,16,37,16.30
2017,10,24,16,38,16.30
2017,10,24,16,39,16.30
2017,10,24,16,40,16.20
2017,10,24,16,41,16.20
2017,10,24,16,42,16.20
2017,10,24,16,43,16.20
2017,10,24,16,44,16.10
2017,10,24,16,45,16.10
2017,10,24,16,46,16.10
2017,10,24,16,47,16.10
2017,10,24,16,48,16.20
2017,10,24,16,49,16.20
2017,10,24,16,50,16.20
2017,10,24,16,51,16.30
2017,10,24,16,52,16.30
2017,10,24,16,53,16.20
2017,10,24,16,54,16.20
2017,10,24,16,55,16.20
2017,10,24,16,56,16.20
2017,10,24,16,57,16.20
2017,10,24,16,58,16.10
2017,10,24,16,59,16.10
2017,10,24,17,00,16.20
2017,10,24,17,01,16.20
2017,10,24,17,02,16.20
2017,10,24,17,03,16.20
2017,10,24,17,04,16.20
2017,10,24,17,05,16.20
2017,10,24,17,06,16.20
2017,10,24,17,07,16.20
2017,10,24,17,08,16.20
2017,10,24,17,09,16.30
2017,10,24,17,10,16.30
2017,10,24,17,11,16.30
2017,10,24,17,12,16.30
2017,10,24,17,13,16.20
2017,10,24,17,14,16.10
2017,10,24,17,15,16.00
2017,10,24,17,16,16.10
2017,10,24,17,17,16.00
2017,10,24,17,18,15.90
2017,10,24,17,19,15.80
2017,10,24,17,20,15.70
2017,10,24,17,21,15.70
2017,10,24,17,22,15.60
2017,10,24,17,23,15.50
2017,10,24,17,24,15.40
2017,10,24,17,25,15.30
2017,10,24,17,26,15.30
2017,10,24,17,27,15.30
2017,10,24,17,28,15.30
2017,10,24,17,29,15.30
2017,10,24,17,30,15.30
2017,10,24,17,31,15.30
2017,10,24,17,32,15.20
2017,10,24,17,33,15.20
2017,10,24,17,34,15.20
2017,10,24,17,35,15.10
2017,10,24,17,36,15.10